Location: Eschentzwiller
(47.7125°N, 7.3981°E)
Time: 04:22:41
(UTC+00:00)

CZ-2C R/B - Pass Details

Date: 27 October 2020
Orbit: 703 x 909 km, 98.1° (Epoch: 01 December)

Event Time Altitude Azimuth Distance (km) Brightness Sun altitude
Rises 18:24:59 0° 173° (S) 3,523 6.3 -21.5°
Reaches altitude 10° 18:27:27 10° 176° (S) 2,581 5.6 -21.9°
Maximum altitude 18:33:12 66° 259° (WSW) 974 3.7 -22.9°
Drops below altitude 10° 18:38:49 10° 341° (NNW) 2,519 6.0 -23.9°
Sets 18:41:12 0° 345° (NNW) 3,434 6.7 -24.3°
